Location: Unnamed
(49.2205°N, 28.4120°E)
Time: 16:16:42
(UTC+03:00)

ISS - Pass Details

Date: 24 April 2026
Orbit: 414 x 424 km, 51.6° (Epoch: 18 May)

Event Time Altitude Azimuth Distance (km) Brightness Sun altitude
Exits shadow 03:24:43 18° 124° (ESE) 1,121 -1.6 -20.7°
Drops below altitude 10° 03:26:28 10° 94° (E) 1,502 -0.5 -20.5°
Sets 03:28:59 0° 75° (ENE) 2,373 0.9 -20.3°
